Wind_Gust
5 2 3 3 2 1 4 4 6 8 6 10 10 9 21 7 18 18 21 12 16 11 15 14 16 13 22 23 25 18 14 6 4 11 9 16 9 19 21 22 19 19 19 18 14 13 16 20 22 23 23 23 22 22 22 24 24 24 24 23 22 23 22 22 22 22 20 20 19 19 21 20 19 16 15 15 15 17 18 19 19 20 20 20 20 20 19 19 19 18 18 17 16 15 15 15 16
2 1 2 1 2 2 5 5 7 2 3 9 21 3 13 6 5 10 14 13 15 12 10 19 23 27 26 23 22 26 25 17 13 18 19 16 17 18 18 22 21 23 18 17 16 14 13 19 22 23 23 23 22 23 24 24 24 24 24 23 22 21 21 21 21 21 20 20 19 19 20 19 18 16 14 13 14 14 14 15 18 19 19 19 19 19 18 19 19 19 17 15 14 15 15 14 15
2 5 5 3 2 4 2 4 6 4 5 17 14 18 6 11 7 9 17 18 16 15 10 13 15 13 15 16 25 18 9 12 25 19 22 16 24 12 13 17 18 19 18 17 18 15 14 17 21 22 22 22 23 23 24 24 24 24 23 22 21 20 20 20 19 19 19 19 18 19 18 18 17 16 13 12 11 9 12 13 15 16 16 17 18 18 18 18 18 18 17 14 13 13 13 13 14
4 4 4 4 5 3 6 5 5 10 10 13 17 10 11 9 18 16 19 15 7 15 8 7 15 15 18 25 23 23 20 14 13 22 28 18 17 19 17 18 16 17 16 16 17 16 14 20 21 22 22 22 22 23 23 24 24 23 22 21 21 20 20 19 19 19 18 18 18 18 17 17 16 14 14 13 12 14 16 15 13 14 12 13 17 17 17 17 17 17 16 14 12 12 12 13 13
4 3 3 4 6 4 5 9 8 10 19 14 13 9 8 8 11 11 13 11 5 16 12 15 23 10 16 14 4 9 12 15 10 10 24 13 19 22 19 17 17 17 16 16 18 16 16 22 21 21 22 22 23 23 23 23 22 22 21 21 21 21 20 19 19 19 18 17 17 17 17 17 16 17 17 16 16 17 16 15 12 11 13 14 16 16 16 15 16 17 15 13 12 11 12 12 12
6 4 2 4 7 7 8 6 9 13 16 5 9 17 3 9 12 17 17 8 4 7 12 7 17 10 17 12 9 13 19 17 17 14 25 18 22 23 20 18 18 17 15 16 17 16 17 20 21 21 21 22 22 23 23 24 23 22 21 20 21 21 20 19 18 18 18 17 17 17 18 17 17 17 17 18 17 17 17 16 14 11 13 17 18 16 16 16 17 16 14 12 12 11 11 11 11
4 4 4 3 9 4 8 6 11 15 23 10 21 19 17 22 21 16 16 6 7 12 10 20 26 19 24 12 17 16 16 17 16 20 16 23 20 19 18 18 18 17 16 17 16 17 19 20 21 21 22 22 22 23 23 24 23 21 22 21 21 21 20 18 17 17 17 16 16 17 17 17 17 17 17 18 18 17 18 17 16 15 14 13 15 15 15 16 17 17 14 12 11 10 9 10 11
2 5 6 6 7 6 6 7 15 11 12 15 13 19 21 22 22 17 13 8 8 11 7 17 11 22 6 7 15 9 12 10 20 16 23 24 20 17 17 20 20 17 17 15 16 16 22 21 22 22 22 22 23 24 24 23 22 20 21 21 20 20 20 19 17 15 14 16 17 17 16 16 17 17 17 17 17 17 18 16 16 16 14 13 12 13 15 17 17 16 14 12 10 9 8 10 10
2 4 4 5 4 7 6 12 17 11 20 12 18 20 20 19 21 23 20 13 4 10 14 15 18 21 8 17 16 9 20 19 20 21 22 23 20 17 19 17 21 19 17 16 16 17 17 20 21 21 21 21 21 22 22 23 20 20 20 20 18 18 17 17 17 15 15 14 15 16 16 16 16 16 17 17 17 17 17 16 15 15 14 12 12 13 15 17 16 15 14 10 9 8 8 8 9
4 5 5 10 7 6 6 16 7 14 13 13 15 20 18 22 16 14 13 8 11 11 5 5 14 23 18 22 21 10 19 17 20 19 21 20 18 16 16 16 18 20 16 16 15 15 14 21 19 20 19 20 20 20 20 20 20 19 19 17 17 17 16 16 15 14 14 14 13 14 15 16 15 15 16 17 17 16 16 15 14 13 12 12 12 13 15 16 15 14 13 11 8 8 7 8 9
7 6 4 4 3 7 12 16 12 18 17 16 17 23 20 24 25 12 7 6 9 14 12 27 28 25 17 12 11 6 13 15 20 22 18 18 17 19 19 17 17 17 18 15 15 14 16 16 22 18 18 19 19 19 18 17 17 16 16 16 16 16 17 15 16 15 15 15 16 16 16 16 16 15 15 16 17 16 15 15 14 13 13 12 13 13 13 15 14 13 12 10 9 5 6 7 9
6 6 6 5 9 10 12 10 14 17 16 16 27 23 18 24 19 14 6 8 15 22 19 11 21 28 18 19 14 11 11 12 14 15 15 19 22 20 19 16 16 16 17 17 15 14 14 14 15 20 18 18 18 19 18 17 16 16 16 16 16 15 15 16 15 15 16 16 15 15 15 15 16 16 15 16 16 16 16 15 15 14 13 12 12 13 13 13 14 12 11 10 8 5 6 7 9
8 3 3 5 9 5 12 10 18 14 16 21 17 23 12 13 8 4 3 10 6 11 5 9 30 11 16 12 14 10 13 8 11 14 16 20 21 20 17 17 18 17 17 16 16 15 14 13 15 16 17 21 19 18 18 17 16 16 17 16 15 15 16 15 15 14 15 16 16 16 16 16 16 16 16 15 16 16 16 15 14 14 13 12 11 12 13 14 13 13 11 10 8 5 6 8 10
11 10 4 10 4 7 13 11 10 11 20 21 18 10 5 5 2 8 16 17 11 8 8 26 19 22 20 18 15 14 12 7 12 14 18 18 21 21 19 18 17 17 16 16 17 16 15 14 14 15 17 17 17 19 18 18 17 17 17 16 16 15 16 14 14 13 14 15 14 14 15 16 16 16 15 15 16 15 15 15 13 13 12 12 11 12 12 12 12 11 10 9 7 5 4 6 9
14 6 6 8 9 6 8 14 6 7 21 15 20 7 12 6 8 9 21 18 14 10 17 15 27 19 21 21 19 20 16 11 12 16 19 19 21 20 19 18 17 16 15 15 15 16 15 15 15 14 14 15 15 14 13 19 20 17 17 17 16 15 14 14 13 12 16 16 15 15 15 16 16 17 16 16 15 14 15 14 13 12 11 11 11 10 10 11 11 10 9 7 6 5 3 4 7
14 8 10 7 11 6 18 10 4 8 21 7 13 7 4 6 5 11 8 19 13 6 5 11 8 7 22 20 26 26 18 15 16 19 20 20 20 18 19 17 16 15 15 15 14 14 15 15 14 15 15 14 13 13 14 13 18 18 17 17 17 14 14 14 13 14 15 14 15 14 13 14 14 15 18 15 16 14 13 11 13 12 11 10 9 9 9 8 9 8 8 7 5 4 3 4 6
7 11 10 10 16 9 13 8 6 17 12 16 14 8 5 11 17 14 8 19 22 4 11 7 6 10 24 12 23 26 20 17 17 20 20 18 20 18 17 15 15 13 14 12 13 15 15 15 14 15 14 14 14 13 13 13 16 19 15 16 15 14 14 15 15 15 12 13 13 13 10 9 8 9 12 10 14 11 12 12 13 12 11 10 9 9 8 8 7 8 8 6 4 3 2 3 5
8 14 14 12 13 16 20 11 8 12 23 20 18 8 7 10 13 10 17 19 18 14 16 13 18 16 15 18 22 25 22 21 20 22 19 18 17 19 18 16 16 16 15 13 12 14 15 15 17 16 15 14 14 14 12 13 14 14 11 9 9 13 13 13 12 10 13 9 12 11 8 8 8 8 8 12 9 12 13 13 13 12 10 10 8 8 8 7 7 7 6 6 4 3 1 0 3
12 10 13 17 13 31 8 5 9 13 22 16 18 10 6 5 8 8 18 7 19 21 14 15 22 19 21 22 22 21 21 19 19 20 20 19 19 19 19 19 16 16 15 13 13 14 14 14 17 16 14 14 14 12 13 13 12 10 8 9 10 11 12 11 9 11 7 8 7 8 8 8 7 7 7 11 10 12 13 14 14 12 10 9 8 8 8 8 7 7 7 6 5 3 1 1 3
10 10 13 16 16 22 10 7 15 15 10 16 18 18 4 4 4 8 13 11 20 22 19 9 22 20 22 23 22 20 17 17 16 20 20 17 16 19 19 19 19 16 15 15 16 14 14 16 17 15 14 14 15 13 14 14 12 11 8 9 10 10 10 9 9 8 7 7 8 7 8 7 6 4 12 17 15 12 10 11 13 13 11 9 8 6 7 6 6 5 4 4 5 5 3 4 6
8 11 15 16 10 14 14 13 16 10 9 17 21 10 7 12 5 15 18 13 6 14 20 25 22 24 23 23 23 22 20 17 15 15 17 17 14 13 16 18 20 19 17 15 14 13 13 15 15 14 13 14 14 14 15 14 12 12 8 9 10 8 8 7 7 8 7 7 7 6 6 6 6 8 8 9 9 9 7 6 7 7 5 3 5 2 1 1 4 4 3 4 3 4 6 6 8
10 9 9 16 16 18 18 16 14 14 19 16 7 6 8 9 8 14 18 16 16 17 12 19 27 28 30 27 23 21 20 18 18 16 17 18 17 15 13 13 12 14 13 15 14 14 15 13 14 13 13 12 11 12 14 18 16 13 9 10 10 9 7 6 5 6 6 7 7 7 6 7 6 8 8 9 8 8 8 7 7 7 6 5 3 2 1 1 2 4 6 7 7 7 6 8 8
18 15 12 14 17 22 12 13 12 8 15 13 13 10 3 9 9 5 9 16 17 14 18 20 25 25 24 25 26 22 20 20 18 18 17 17 16 13 15 15 16 14 13 14 14 14 16 13 16 15 14 14 14 12 10 12 12 11 9 10 11 10 9 7 6 5 4 6 7 6 7 7 7 8 9 8 7 7 7 7 6 6 7 6 3 4 1 1 3 7 7 6 4 6 7 7 6
14 24 10 17 16 21 18 19 15 15 14 16 13 7 6 4 8 4 7 5 12 16 19 19 18 20 22 23 20 22 20 20 18 15 15 16 15 15 15 19 23 17 20 17 15 15 16 18 16 16 15 17 16 15 15 11 9 10 9 9 12 13 10 6 5 6 4 7 6 5 6 7 8 8 8 8 6 7 6 7 7 7 6 4 3 3 4 3 4 5 7 7 7 6 7 6 7
13 21 14 19 19 17 13 15 16 14 13 13 11 9 13 5 4 5 9 11 15 18 19 20 22 22 21 20 19 18 16 15 15 12 9 11 12 22 23 25 22 23 20 16 17 14 13 16 17 16 17 17 17 17 15 14 12 10 7 6 11 12 9 8 7 6 6 5 5 6 8 8 6 8 8 7 6 7 6 7 7 7 7 5 5 4 5 5 6 6 7 6 7 8 6 8 5
12 18 16 16 19 17 16 12 12 13 9 5 7 11 10 10 7 9 15 13 16 19 20 23 23 25 24 22 21 19 17 14 13 13 13 17 25 28 24 20 20 23 20 18 17 11 10 11 16 17 20 20 20 17 17 16 13 11 10 8 9 11 9 8 8 8 6 6 6 5 5 6 7 8 7 6 7 6 6 6 7 6 7 5 6 6 5 7 5 5 5 5 8 8 8 7 5
8 9 9 13 14 14 13 18 18 18 9 7 12 4 9 5 7 5 8 17 17 19 20 20 22 23 21 20 19 17 18 15 14 13 19 20 23 23 20 18 19 19 20 20 18 14 15 17 15 14 17 17 17 16 17 17 14 14 12 10 9 8 8 9 8 8 7 6 6 6 6 6 7 6 7 7 6 7 6 7 6 6 6 5 5 6 6 6 5 5 3 4 7 7 8 5 7
10 13 13 15 15 15 16 8 13 6 11 11 12 11 9 4 2 10 14 8 20 22 19 20 20 20 20 19 19 15 15 13 12 13 21 23 22 21 20 20 19 20 21 23 23 22 20 20 17 15 16 14 15 15 15 18 19 16 13 10 9 8 9 8 8 8 9 7 5 5 6 6 6 6 6 6 7 6 6 6 5 5 5 4 6 6 6 5 5 5 5 5 6 6 7 6 5
11 11 17 14 14 21 5 11 16 9 15 11 12 9 5 3 7 9 15 16 16 22 21 21 20 21 19 19 18 15 15 12 18 21 24 25 23 24 22 17 22 18 18 21 19 17 17 18 18 16 16 14 15 17 17 18 17 16 13 11 9 10 10 9 9 8 7 7 6 6 7 6 7 8 5 5 7 8 7 6 5 4 6 7 7 7 6 6 6 6 6 6 5 6 6 7 5
12 13 11 12 12 16 11 6 9 8 8 9 9 16 10 11 11 12 10 24 16 17 16 17 17 18 20 19 18 16 13 14 20 23 21 21 18 18 20 19 22 20 18 15 19 17 16 15 14 15 14 15 14 14 14 15 15 13 12 11 9 9 10 11 10 8 8 8 8 6 7 7 8 7 8 6 7 8 7 7 7 6 7 7 7 8 7 6 6 5 5 5 8 8 6 6 7
12 13 8 11 7 19 7 8 3 7 8 9 10 16 14 12 15 15 9 25 23 21 18 18 18 16 17 17 18 16 13 13 22 24 22 20 16 15 19 16 17 16 16 16 18 18 16 15 14 14 13 13 14 13 16 15 12 10 11 11 10 10 9 9 8 8 8 7 7 5 6 7 8 7 6 7 6 6 6 6 6 8 8 7 8 6 8 6 6 5 5 7 6 7 6 4 5
8 11 13 9 7 14 11 8 6 14 9 6 9 14 13 14 17 16 14 22 24 25 19 17 17 17 16 16 17 16 16 21 24 22 24 21 17 17 18 17 14 15 17 18 18 18 15 12 12 13 12 14 13 13 13 13 12 9 10 11 11 10 9 9 9 9 8 8 7 7 5 5 6 6 6 7 8 8 8 6 8 8 8 8 8 7 6 7 5 5 3 5 8 6 8 5 4
7 10 7 14 5 9 13 10 10 11 14 4 13 15 6 11 16 17 13 24 23 23 19 16 20 18 17 16 16 20 24 23 21 21 20 18 15 17 17 16 16 17 16 18 18 17 14 12 14 14 14 13 12 11 10 9 11 11 10 11 12 11 11 10 8 7 7 7 7 7 5 6 7 9 8 7 8 8 7 7 9 8 5 7 7 6 6 5 5 6 3 4 5 8 7 7 5
16 5 12 9 11 6 14 12 8 10 12 13 7 17 9 9 12 17 14 19 24 20 21 21 21 19 18 17 17 20 23 25 22 21 18 20 21 18 13 14 14 14 15 16 17 19 17 13 12 12 11 11 12 12 12 12 11 11 10 10 9 11 10 10 9 8 8 7 7 7 7 7 8 8 8 6 7 6 6 9 11 12 6 6 7 5 6 5 5 7 7 4 6 9 8 9 8
10 9 8 15 8 8 16 15 8 9 10 17 10 14 13 14 15 13 16 13 27 24 26 25 21 16 16 16 16 17 21 23 21 23 23 21 21 15 12 12 12 14 16 16 15 14 14 11 9 10 10 9 8 8 9 8 9 8 7 8 7 7 8 7 9 8 8 8 7 7 8 7 7 8 7 7 8 7 9 9 11 10 10 8 5 4 3 4 5 3 5 4 4 7 10 9 10
9 10 11 7 10 15 16 23 17 7 5 15 16 17 22 21 18 14 11 8 21 22 18 19 19 19 17 17 19 23 25 24 23 25 23 20 19 18 14 14 14 15 16 17 15 15 14 10 8 8 9 10 8 8 10 11 10 11 10 6 6 6 7 8 6 8 7 9 9 8 8 9 7 8 8 7 8 8 8 8 9 8 8 6 7 5 4 5 6 5 4 5 7 9 9 10 10
11 12 9 11 10 14 13 18 12 7 9 16 23 21 20 22 21 20 16 8 8 13 15 14 20 20 18 22 25 25 25 23 22 24 22 18 17 16 15 15 16 15 15 15 15 14 14 15 15 13 10 11 14 14 13 13 12 10 6 9 12 10 9 7 8 5 6 7 7 8 9 9 7 7 6 7 7 7 7 7 7 5 6 6 7 7 6 6 4 5 6 4 7 9 8 8 6
15 15 14 19 13 19 21 16 8 6 12 18 23 19 22 25 22 22 18 8 9 13 19 20 21 21 23 28 26 25 23 21 19 16 17 18 19 20 19 18 16 18 15 15 16 15 12 12 15 14 11 12 13 15 14 12 8 11 11 12 8 8 9 11 9 8 8 7 5 7 8 8 8 7 6 6 6 8 8 6 6 6 5 6 6 6 4 5 4 4 5 5 3 7 7 8 10
15 15 16 14 19 16 18 13 6 8 7 27 21 21 24 27 23 23 15 15 13 15 28 31 27 24 24 24 27 25 20 19 17 19 18 20 19 18 20 21 22 21 20 16 13 14 13 13 12 13 13 14 13 11 12 12 7 7 9 10 12 11 8 9 10 9 8 9 6 7 6 6 7 7 7 7 8 6 8 8 7 6 5 6 7 6 4 4 4 5 4 7 5 4 8 4 5
10 11 9 18 14 7 18 18 9 16 20 19 19 24 20 22 16 19 7 10 8 7 23 25 30 33 28 29 30 30 23 23 22 21 20 18 20 21 17 15 17 16 17 14 15 16 15 14 13 14 15 12 12 11 12 7 8 5 5 10 10 12 12 9 9 8 8 8 6 5 4 6 6 7 7 6 6 5 8 8 7 7 6 5 7 7 5 5 4 4 5 5 7 7 6 2 2
11 16 20 21 12 10 12 18 15 13 19 8 16 12 10 7 13 19 8 7 21 23 25 25 22 25 27 25 22 23 25 23 22 19 17 20 24 24 25 23 21 20 19 20 19 18 16 16 15 14 14 13 12 11 10 8 10 10 10 10 11 12 9 10 11 8 6 7 6 5 6 5 7 7 5 5 6 7 5 6 7 6 6 4 5 6 6 6 5 5 6 7 5 9 5 5 3
13 11 17 14 6 6 11 15 13 20 20 9 11 13 10 7 5 16 6 13 18 15 26 23 26 29 28 26 24 20 23 25 27 24 24 24 23 21 17 17 18 19 21 20 19 17 15 16 15 14 12 11 11 8 9 12 14 18 18 18 17 13 13 12 12 12 6 8 7 3 6 8 9 7 6 5 5 5 5 5 4 5 5 7 6 6 4 4 4 5 6 8 4 3 7 6 6
11 17 12 10 6 4 7 15 8 11 13 15 6 11 11 10 3 4 5 18 21 14 24 22 26 27 26 24 22 22 22 18 15 17 22 22 20 21 19 19 18 19 17 16 14 14 14 15 13 14 13 11 9 8 9 11 13 14 15 16 15 16 15 8 7 8 9 5 7 8 9 8 9 9 6 7 7 6 6 5 4 3 4 3 4 5 5 6 6 5 5 5 6 7 6 6 8
20 9 5 6 2 4 9 11 6 17 8 17 7 9 10 5 12 6 11 23 21 19 20 20 22 23 23 22 22 21 22 21 22 24 24 23 24 25 23 17 15 14 12 11 11 11 13 14 13 12 9 8 7 9 8 9 15 13 12 11 13 13 12 11 10 8 7 8 10 9 8 6 6 8 7 6 6 7 7 6 6 7 6 4 5 7 7 4 3 3 4 4 6 7 7 11 8
14 7 9 9 9 8 12 10 14 10 4 18 15 8 7 7 13 10 24 26 21 14 19 23 22 21 22 22 21 19 18 19 22 26 24 22 21 15 14 15 11 11 10 11 11 11 10 9 10 7 7 6 6 7 9 7 11 14 15 14 12 8 12 12 9 9 10 9 9 6 8 6 7 6 6 6 6 7 8 7 8 8 6 4 6 7 4 4 4 5 5 6 5 5 7 6 10
12 10 7 8 5 8 9 10 10 6 7 10 9 5 9 9 10 9 6 24 22 14 17 24 26 25 23 22 18 17 16 17 19 23 22 20 18 16 13 13 13 11 10 9 7 6 6 6 8 8 7 6 8 7 7 6 9 13 14 13 14 12 13 11 11 11 9 8 9 8 9 10 8 8 6 6 7 6 7 8 8 8 6 6 7 7 6 5 5 5 5 6 5 5 4 8 10
5 5 9 13 7 6 5 9 12 5 11 14 10 4 8 8 8 2 4 12 22 20 15 14 15 15 14 17 22 23 20 17 17 15 17 17 14 14 15 16 15 13 12 12 11 9 8 8 6 6 5 4 7 8 7 9 8 12 14 14 16 15 14 14 13 10 9 9 12 8 9 8 8 9 8 7 7 7 9 9 8 6 5 6 7 7 6 7 5 6 6 5 6 7 6 6 6
6 10 10 6 14 4 5 8 5 10 11 12 11 7 8 8 10 9 9 9 31 35 31 28 22 18 18 14 12 12 14 15 17 19 17 18 17 17 16 17 17 16 15 15 13 11 11 9 9 9 6 7 7 8 6 9 8 10 11 14 16 16 15 15 15 13 12 12 11 11 8 10 7 7 7 8 7 8 10 9 7 8 8 6 7 7 6 7 7 7 7 7 6 5 5 7 6
7 4 5 5 10 11 10 6 7 9 12 7 6 8 5 4 8 11 16 11 23 30 39 35 27 20 15 14 13 12 13 17 23 21 18 15 16 17 18 18 17 16 17 15 15 13 13 11 12 12 11 9 9 7 7 6 6 9 14 14 14 14 14 13 12 12 10 13 12 10 10 10 8 9 6 9 5 7 9 10 9 10 8 6 6 8 7 8 9 9 8 7 6 5 5 7 8
5 9 9 9 10 8 8 7 7 5 10 10 6 4 8 7 7 12 9 5 20 18 16 16 19 21 18 19 17 17 16 17 17 18 14 15 17 18 17 19 19 16 14 17 16 15 14 13 13 14 13 10 8 7 7 7 5 7 8 10 11 12 12 11 11 13 9 11 11 11 11 10 10 8 6 7 5 6 7 6 8 8 8 7 8 9 8 7 8 9 7 8 6 4 6 7 8
14 11 17 16 15 16 11 8 7 11 13 9 6 9 11 8 4 10 9 10 17 21 26 25 22 20 20 20 18 16 17 17 20 21 21 21 21 20 19 17 16 16 16 17 17 17 15 15 15 15 14 11 9 10 8 10 8 10 8 10 11 11 12 11 11 12 11 12 10 11 9 9 9 6 9 6 5 7 6 6 7 10 9 9 8 8 8 7 7 7 6 6 6 6 9 10 8
8 5 12 9 14 14 10 12 10 5 4 5 8 7 2 15 5 7 12 19 19 17 19 21 22 20 21 22 20 20 16 18 16 17 17 18 19 17 17 16 17 17 16 15 15 16 16 16 16 16 17 15 12 9 8 10 8 11 9 11 12 12 11 11 10 9 10 11 11 13 11 9 9 8 7 7 6 7 7 6 7 9 8 9 8 8 7 7 6 8 6 6 7 5 13 11 8
10 6 9 14 13 16 9 4 5 10 10 6 5 9 9 6 13 11 13 19 14 12 13 16 20 24 23 22 20 18 16 16 16 17 18 15 13 14 16 17 17 14 14 14 11 12 15 16 15 15 12 9 10 10 11 10 12 13 11 12 11 11 12 11 12 9 10 10 12 12 13 10 10 9 8 7 7 5 6 6 7 8 8 8 8 7 7 6 6 6 7 6 7 6 11 9 9
6 7 14 6 8 11 13 13 6 8 9 13 5 15 10 7 12 4 11 17 10 12 12 12 15 19 21 19 17 18 19 16 11 10 11 15 16 16 15 14 14 13 11 8 8 8 12 13 14 14 11 12 8 6 7 6 10 11 11 13 12 13 13 11 11 11 10 12 11 12 11 12 12 11 10 7 7 6 5 7 8 7 7 8 8 7 7 7 7 7 6 6 5 7 9 8 8
17 14 6 11 9 7 9 14 7 10 10 11 9 5 4 5 6 8 5 14 13 13 14 17 17 17 19 15 15 10 8 11 11 11 14 14 13 10 10 10 10 12 12 9 7 6 8 8 9 12 13 9 8 6 5 6 9 11 11 13 12 11 10 11 10 11 11 14 13 13 13 13 11 10 11 7 6 6 6 6 6 6 7 7 6 6 6 7 7 8 5 7 4 8 9 7 5
6 6 9 5 14 9 8 13 13 19 8 5 7 7 8 5 3 10 7 17 14 15 13 15 18 19 15 12 11 11 11 7 9 11 11 12 12 9 9 10 9 10 10 9 7 5 5 5 7 7 8 8 7 7 5 5 6 10 9 10 8 10 11 11 11 12 12 13 13 12 11 10 12 10 10 8 7 6 6 6 4 6 7 6 7 6 7 7 7 6 7 8 5 8 9 8 6
15 17 13 13 9 7 11 6 8 13 18 15 12 6 6 8 12 9 16 14 15 13 12 11 12 12 12 11 14 14 12 10 8 9 11 12 9 9 10 11 10 9 8 8 7 6 5 5 8 11 11 10 10 9 9 5 7 9 11 10 10 10 11 11 10 12 14 12 11 11 10 9 9 9 10 9 8 7 6 6 7 7 7 8 7 7 6 6 7 6 6 6 6 7 8 6 8
9 9 7 6 4 9 9 12 8 8 16 18 17 12 5 7 12 10 16 13 15 16 13 11 11 11 12 14 9 19 19 14 8 8 10 11 10 11 12 13 11 11 10 8 7 6 5 4 5 6 9 8 9 11 11 10 6 8 10 10 9 9 11 10 12 13 14 13 11 11 10 9 10 9 10 10 9 6 6 6 7 6 7 7 6 6 5 6 7 6 5 5 6 7 7 6 6
Wind_Speed
3 1 2 2 1 0 2 1 0 2 2 5 4 2 6 2 8 7 11 7 5 2 3 8 10 3 4 9 14 9 9 2 2 4 3 2 4 11 13 14 13 12 12 10 8 8 10 14 17 18 18 18 18 18 18 19 20 19 19 19 18 18 17 17 17 16 15 15 16 16 17 17 15 13 13 13 13 14 15 16 16 16 16 16 16 16 15 15 14 14 13 13 12 11 12 12 12
1 1 1 1 0 0 0 2 1 1 1 4 9 1 5 3 1 5 9 9 4 2 1 11 13 16 17 16 14 12 12 8 4 6 6 7 10 9 13 15 14 16 12 10 9 9 8 12 17 17 18 18 18 19 20 20 19 19 19 18 18 17 17 17 17 17 16 15 15 16 16 16 15 13 12 11 12 11 11 12 14 15 15 15 15 15 15 15 14 14 12 11 11 11 11 11 11
1 3 2 2 1 1 0 1 0 1 2 8 5 8 3 6 4 6 11 10 4 8 4 6 5 5 4 4 11 6 2 4 13 9 7 10 14 6 9 11 12 13 13 10 10 9 8 11 16 17 18 18 19 19 19 19 19 19 18 17 16 16 16 16 16 16 16 15 15 16 15 15 14 12 10 10 9 8 10 11 13 13 13 14 14 14 14 14 14 13 11 10 9 9 10 10 11
2 3 2 1 1 1 2 1 3 5 4 5 6 6 5 4 10 11 13 10 6 9 2 3 6 6 5 15 10 14 9 3 2 11 8 7 6 11 10 12 11 10 9 9 10 9 8 14 17 17 18 18 18 19 18 20 19 18 18 17 16 16 16 15 15 15 14 14 14 15 14 13 13 11 11 11 10 12 13 12 11 11 9 11 14 13 13 13 13 12 11 9 8 8 9 10 10
2 2 1 1 2 1 1 3 3 4 9 4 6 5 5 4 6 5 8 8 4 9 3 5 6 4 6 6 0 1 6 7 6 3 7 6 12 13 12 12 11 11 10 10 11 10 10 18 17 17 18 18 19 19 18 18 18 18 17 17 17 17 17 15 15 14 14 14 14 14 14 13 13 13 13 13 13 14 13 11 10 9 11 11 13 13 12 12 13 12 10 9 8 8 9 9 9
4 2 1 1 0 1 1 1 3 7 7 1 3 7 2 4 8 10 11 6 3 5 8 1 7 4 5 4 2 4 11 7 6 3 8 10 14 15 14 11 11 10 10 10 10 9 10 17 16 17 17 18 18 19 19 19 18 17 17 17 17 17 16 15 15 14 14 14 14 14 14 14 14 14 14 14 14 14 14 13 11 9 11 14 14 13 12 12 13 11 9 8 8 8 8 8 9
0 2 1 1 2 1 3 2 6 7 9 4 8 10 11 15 13 10 9 3 4 7 1 9 15 11 9 1 7 5 5 11 7 7 7 13 13 12 12 11 11 11 11 10 9 10 13 16 17 17 17 18 18 18 19 18 18 17 17 17 17 17 16 14 13 13 13 13 13 14 13 13 14 14 14 14 14 14 14 14 13 12 11 10 12 12 12 12 13 10 9 9 8 7 7 8 8
0 1 1 1 1 0 1 3 8 4 5 9 8 12 14 14 14 5 8 5 3 2 4 10 5 9 1 4 5 4 5 2 11 11 15 15 13 11 11 12 13 11 11 9 10 9 17 17 17 17 17 17 19 19 19 19 18 16 17 17 16 15 15 14 13 12 12 13 14 14 13 13 13 14 14 14 14 14 14 13 13 13 12 10 10 11 12 13 13 10 8 9 7 6 6 8 7
1 1 1 2 1 0 2 6 8 3 7 6 9 10 13 13 14 13 15 6 2 3 6 9 7 10 3 9 5 4 7 11 13 15 15 15 13 11 9 11 13 11 10 9 10 10 11 16 16 16 16 16 17 18 17 18 16 15 16 16 15 14 13 14 13 12 12 12 13 13 13 13 13 13 13 13 14 14 14 13 12 12 11 10 10 11 12 13 12 11 7 7 6 5 6 6 7
1 1 1 2 2 2 2 8 3 5 3 5 8 12 11 12 10 10 9 5 5 6 2 2 3 11 11 13 8 4 7 11 14 13 14 13 12 11 11 11 12 14 10 9 9 9 8 15 14 15 15 16 15 16 15 15 15 14 15 14 13 13 13 13 12 12 12 11 11 11 12 13 12 12 13 13 14 13 13 12 12 11 10 10 9 11 12 13 12 11 8 6 5 5 5 6 7
0 0 1 0 1 3 6 7 6 8 8 7 10 14 14 13 16 6 5 4 6 7 7 14 12 14 9 7 3 2 8 10 14 14 13 12 12 12 11 10 11 12 11 10 9 9 9 10 17 15 15 15 15 15 15 14 13 13 13 13 13 13 14 12 12 12 12 12 13 13 13 13 13 12 12 13 13 13 12 12 11 11 11 10 10 11 11 12 11 11 9 6 4 4 5 6 7
1 0 0 2 3 5 5 3 6 8 10 9 12 13 10 15 13 6 4 5 4 14 11 4 7 11 10 8 5 6 7 7 9 10 10 11 12 13 12 9 10 10 11 11 10 8 8 9 9 15 14 15 15 15 14 14 13 13 14 14 13 12 13 12 11 12 13 13 13 12 13 13 13 13 12 12 12 13 13 12 12 11 10 10 10 10 11 10 11 10 9 7 3 3 4 5 6
1 0 0 1 3 2 5 4 8 7 7 11 10 8 5 9 5 3 0 7 3 6 0 2 20 5 7 5 4 5 8 3 6 10 11 11 12 11 11 11 11 11 11 11 10 10 10 8 9 9 12 17 15 15 14 14 14 14 14 14 13 13 13 11 11 12 13 13 13 13 13 13 13 13 13 13 13 13 13 12 12 11 10 10 9 10 10 11 10 10 9 7 4 2 4 5 6
3 4 2 3 0 2 6 4 4 5 8 11 9 6 2 1 1 6 8 8 7 2 3 16 8 12 10 8 7 7 5 4 7 9 11 11 10 12 12 11 11 11 11 10 11 10 9 9 8 9 10 11 11 13 15 14 14 14 14 13 13 12 13 10 10 11 12 13 12 12 13 13 13 13 12 13 13 12 12 12 11 10 10 9 9 9 10 10 9 9 8 7 5 2 2 5 7
6 2 1 2 3 3 3 3 3 2 10 10 9 4 6 3 6 6 12 11 9 4 5 2 9 10 7 12 8 10 8 7 8 11 12 11 12 13 13 11 11 10 9 10 10 10 9 9 9 9 9 9 9 8 8 12 16 14 13 13 13 12 12 11 11 10 13 13 12 12 13 13 13 14 13 13 12 12 12 12 10 10 9 9 9 8 8 9 9 8 7 6 4 2 1 3 6
4 2 1 1 4 3 5 2 0 5 8 4 8 5 1 5 3 4 1 9 3 3 2 3 5 2 12 12 16 16 12 10 10 13 12 13 12 12 12 11 9 9 8 9 9 8 9 9 8 8 8 8 8 7 8 8 13 14 13 13 14 12 11 10 11 12 12 12 12 12 11 10 11 10 14 10 12 12 11 8 10 10 9 8 8 8 7 7 7 6 6 5 3 1 0 2 4
1 2 3 3 7 4 4 3 4 6 5 8 10 5 3 4 6 7 3 7 13 2 3 2 1 3 15 4 13 17 13 11 11 14 13 11 10 9 9 8 8 7 7 7 8 8 9 9 9 8 8 9 9 8 7 8 10 14 11 12 12 12 12 12 12 13 10 11 10 10 8 6 5 5 7 6 11 7 10 10 10 10 9 8 7 7 7 6 6 6 6 4 2 1 1 2 4
2 4 4 6 6 8 5 3 3 3 8 11 12 6 3 6 3 3 6 11 10 8 8 4 11 10 9 11 15 15 13 14 13 15 12 10 9 9 9 8 8 9 8 7 7 8 9 9 10 9 8 9 8 7 6 6 7 9 7 6 6 9 10 10 8 7 9 5 10 7 5 5 5 5 5 8 5 7 8 10 10 9 8 8 7 6 6 6 5 5 5 4 3 1 0 0 2
4 2 4 8 5 14 1 2 5 4 10 9 12 7 1 1 5 2 7 2 9 11 6 6 12 11 14 15 15 14 13 13 13 13 14 13 11 12 10 9 8 9 8 7 7 8 7 8 9 9 8 8 9 7 6 6 6 5 5 6 6 8 8 7 6 7 4 5 4 5 5 4 4 4 5 6 6 10 8 10 10 9 8 7 7 6 6 6 6 5 5 4 3 1 0 1 2
5 4 6 8 9 10 3 4 9 4 5 10 12 12 3 3 1 1 6 5 10 13 9 4 12 13 14 15 15 13 12 11 10 12 13 12 10 12 12 11 9 8 8 7 8 7 8 7 9 8 8 8 7 6 5 6 5 4 5 5 5 5 5 5 5 5 5 5 5 4 5 4 4 3 8 13 11 7 6 8 10 9 8 7 6 4 5 5 4 3 2 3 3 3 2 3 4
3 4 5 7 5 5 8 7 8 6 5 8 9 7 5 7 1 5 11 7 0 4 11 17 14 17 15 15 16 14 13 11 10 10 10 11 9 7 9 9 9 8 7 7 7 8 7 8 8 7 7 6 7 6 6 5 4 4 4 5 4 4 4 4 4 4 4 4 4 4 4 3 4 4 4 5 4 5 4 4 4 4 3 3 4 2 1 1 3 2 1 2 2 3 4 4 5
3 4 5 9 8 8 11 10 10 9 12 10 5 4 4 5 4 8 11 9 7 9 7 11 17 18 19 17 15 13 13 12 11 11 11 11 11 9 8 8 7 7 7 7 7 8 7 7 7 6 7 7 6 4 5 7 6 4 5 5 4 4 3 2 2 3 3 3 4 4 4 4 4 5 5 5 4 4 5 4 4 4 4 3 1 1 0 1 2 3 4 4 3 3 4 5 5
6 6 7 9 9 8 5 7 7 5 6 7 5 7 2 3 2 3 5 10 8 7 10 12 17 17 16 16 16 14 14 14 12 12 12 10 10 8 9 8 8 8 8 8 7 7 8 8 10 9 8 8 7 6 4 4 4 3 4 5 5 4 3 3 2 2 2 3 3 4 4 3 4 5 5 5 4 4 4 4 4 4 4 4 2 2 1 1 3 4 4 4 3 4 4 4 3
6 8 6 11 11 11 11 12 11 9 10 9 6 5 3 0 4 1 2 1 6 6 9 11 12 13 14 14 12 14 13 14 12 10 10 10 9 9 9 12 11 10 10 7 7 6 9 9 8 9 9 10 9 8 7 6 3 4 4 4 5 6 5 3 2 3 2 4 3 3 3 3 4 5 5 5 4 4 4 4 4 4 4 2 2 2 2 2 3 4 4 4 4 4 4 2 2
7 9 8 11 11 9 9 10 11 10 9 9 8 6 9 4 2 3 2 7 8 12 11 12 14 15 14 14 13 12 11 10 10 8 6 6 9 14 14 11 13 13 13 5 6 7 7 7 6 9 10 10 10 9 8 7 6 5 4 4 6 7 5 4 4 3 4 3 3 3 3 4 4 4 5 4 4 4 4 4 4 4 4 3 3 2 3 3 3 3 4 4 4 4 4 3 1
5 11 9 9 10 10 10 8 8 9 5 4 4 8 7 7 2 4 10 6 10 12 12 14 15 15 16 15 15 13 11 10 9 9 8 10 15 16 12 11 12 13 11 11 10 6 4 7 10 9 8 10 11 10 9 8 7 6 6 5 5 5 5 4 5 4 3 4 4 3 3 3 4 5 4 3 4 4 4 4 4 4 4 3 4 3 2 3 3 3 3 3 4 5 4 2 2
3 5 6 8 9 7 6 10 12 12 4 5 7 3 5 3 2 1 3 8 11 12 13 13 15 14 14 14 13 11 12 10 10 8 12 11 13 14 10 10 12 11 12 13 11 10 9 11 9 9 9 8 8 9 8 9 8 7 7 5 4 4 5 5 4 4 4 3 3 4 4 4 4 4 4 3 4 4 4 4 3 3 4 3 3 3 2 3 3 2 2 2 4 4 4 2 2
6 7 9 10 10 9 6 5 9 3 3 8 8 8 6 2 1 4 9 5 13 15 13 13 13 13 12 13 13 10 9 8 7 7 14 14 11 12 13 11 12 12 13 13 12 12 11 13 11 10 10 8 9 9 8 9 9 8 6 5 5 4 5 4 4 5 5 4 3 3 4 4 3 3 3 3 4 4 4 4 3 3 3 3 4 3 3 2 3 3 3 2 3 3 3 3 2
5 5 6 9 9 8 3 4 6 4 4 7 8 6 2 0 4 5 10 10 10 15 14 14 13 12 12 12 11 9 9 7 11 10 11 12 10 9 12 11 12 10 10 11 11 10 9 9 10 10 10 9 10 11 10 10 8 6 6 5 5 5 4 4 4 4 4 4 4 4 5 4 3 4 3 3 3 3 3 3 3 2 3 3 3 3 3 2 3 3 3 3 3 3 3 3 3
6 5 3 7 7 8 7 3 5 5 3 6 6 6 6 6 7 8 7 13 10 11 11 11 10 9 10 11 11 10 8 9 13 12 11 10 9 9 13 12 15 12 8 8 12 11 9 8 7 7 8 9 9 8 8 8 7 7 5 4 5 5 5 5 4 3 4 4 4 3 4 4 4 4 4 4 4 4 4 4 4 4 4 3 4 4 4 3 4 3 3 2 4 4 4 3 4
3 6 2 4 4 7 3 1 0 2 3 6 5 6 7 7 10 10 5 14 16 13 12 11 10 10 9 10 10 9 6 8 13 12 12 12 9 9 12 11 12 9 9 10 11 12 10 9 7 7 8 8 9 8 10 8 7 5 5 5 4 5 5 5 4 4 4 4 4 4 4 4 5 4 3 4 4 4 4 4 3 4 4 4 4 4 4 3 4 3 3 4 4 4 3 2 3
2 4 6 4 4 7 7 4 3 6 3 4 6 6 7 7 10 12 6 13 16 13 12 11 10 10 10 9 10 9 10 11 13 13 11 9 6 6 10 11 9 10 11 11 11 11 10 7 8 8 8 9 8 8 8 8 7 4 5 6 5 5 4 4 5 5 5 4 4 4 3 3 3 3 4 4 4 4 4 4 4 4 4 3 4 3 3 4 3 3 2 3 4 3 4 3 3
2 5 4 7 3 5 6 6 5 8 5 1 7 6 2 6 11 11 4 17 14 14 12 10 12 11 9 9 9 12 14 14 12 12 12 9 7 7 8 10 10 11 10 11 11 11 9 8 8 9 9 8 7 6 6 6 6 5 5 5 6 5 5 4 4 4 4 4 4 4 3 3 3 4 4 4 5 5 4 4 4 5 3 4 4 4 4 3 3 3 1 2 3 4 4 4 3
6 0 4 4 5 3 5 7 5 4 4 5 2 4 5 4 7 10 7 14 14 12 12 12 12 9 9 9 10 12 13 14 12 12 12 13 13 12 7 8 8 9 10 10 10 11 11 8 7 7 5 5 6 7 7 6 6 5 4 5 4 5 4 4 4 4 3 3 3 3 3 3 4 4 5 4 4 4 4 5 6 5 4 4 4 3 2 2 2 3 3 1 3 5 4 4 4
3 3 3 7 3 3 9 5 4 1 3 6 6 5 8 9 10 8 11 10 18 14 14 15 12 9 9 8 10 11 13 13 12 13 15 14 15 10 7 7 7 9 9 10 10 9 8 7 5 6 6 6 4 5 5 5 5 4 3 4 4 3 3 3 4 4 4 3 3 3 4 4 4 4 4 4 5 4 5 6 6 5 4 4 3 2 2 3 3 2 3 2 3 4 5 3 4
3 3 4 3 4 7 7 10 7 3 2 5 8 8 11 14 12 8 8 4 15 14 12 10 9 10 9 10 11 12 15 14 10 12 14 12 10 9 8 8 9 9 9 10 10 9 9 6 4 5 6 6 5 5 6 6 6 6 5 3 3 4 4 3 2 3 4 4 4 4 4 4 3 4 4 4 5 5 5 5 5 5 5 4 4 3 3 3 4 3 3 3 5 5 4 4 4
6 5 5 7 5 7 6 9 5 1 2 7 11 12 13 14 14 13 9 3 6 9 9 7 10 11 11 12 13 14 15 13 10 8 8 8 10 10 8 8 10 9 9 10 10 9 9 9 8 8 6 7 7 7 6 7 6 5 3 4 5 4 4 3 3 3 3 4 4 4 4 5 4 3 4 4 4 4 4 4 4 4 4 4 4 4 3 3 2 3 3 2 4 6 4 3 2
6 8 8 10 8 10 11 8 4 3 3 5 9 12 15 17 14 14 10 5 5 10 13 13 13 10 13 15 16 17 14 8 11 10 10 11 11 11 11 10 10 12 10 10 10 10 8 8 9 8 6 7 7 8 7 6 4 5 5 6 3 4 4 5 3 2 3 3 3 5 5 5 5 5 4 4 4 5 4 4 3 3 3 3 3 3 3 3 3 3 3 2 1 4 3 4 5
7 7 8 7 9 8 12 7 3 2 2 9 10 12 14 18 15 14 10 8 7 10 18 19 17 15 13 15 16 17 11 11 10 11 12 13 13 12 10 12 13 13 13 11 9 9 9 8 7 7 7 8 7 7 7 6 3 3 4 4 6 4 3 4 4 4 3 4 4 4 4 4 4 4 4 4 4 4 4 4 4 4 3 4 4 4 3 3 3 4 3 4 3 2 4 1 3
5 6 4 9 7 3 8 7 1 5 1 7 9 11 11 13 9 12 3 2 2 1 12 17 19 21 18 18 17 17 14 13 13 13 13 13 11 11 10 9 9 9 10 9 9 10 9 8 8 7 7 6 6 6 7 5 5 3 3 6 6 5 5 3 3 3 3 3 3 2 2 3 4 4 4 4 3 3 5 5 5 4 4 3 5 5 3 3 3 3 3 3 4 4 2 1 1
6 8 9 9 7 6 6 8 6 6 9 2 2 4 3 5 6 8 3 5 13 10 14 13 10 15 16 15 13 14 16 15 13 11 11 14 14 14 14 13 11 11 11 12 11 10 8 10 9 9 8 7 6 6 6 5 6 5 6 6 6 6 4 5 5 3 3 3 3 3 3 3 3 4 3 3 3 4 3 4 4 4 4 3 3 4 4 4 3 3 4 4 3 5 3 2 1
6 7 11 10 4 4 7 5 6 7 8 3 4 2 2 3 3 9 2 7 9 6 16 14 17 19 17 16 16 12 12 13 16 14 14 16 13 13 11 11 10 8 10 10 10 9 9 9 10 9 8 7 6 5 5 6 7 9 9 9 8 7 7 6 7 7 4 5 4 1 3 4 4 4 3 3 3 3 3 3 3 3 3 4 3 3 3 2 2 3 4 5 3 1 4 4 2
5 6 8 8 5 2 4 8 4 4 2 7 3 4 1 4 1 1 3 12 9 5 13 14 16 15 15 14 14 13 13 10 6 7 10 11 11 11 10 11 10 10 8 7 6 6 7 8 8 8 8 6 5 5 5 7 7 8 9 9 9 9 8 3 4 4 5 3 4 4 4 4 5 5 4 4 4 3 2 3 3 2 2 2 2 3 3 3 4 3 2 3 3 4 3 3 5
6 4 4 4 1 3 5 6 2 6 2 8 3 1 3 1 2 1 8 15 10 10 10 12 12 13 12 13 13 13 12 12 11 12 13 13 13 14 14 11 9 7 5 6 5 5 7 7 7 6 4 5 4 4 5 6 9 7 7 7 7 7 7 6 5 4 3 4 6 5 4 4 4 4 4 4 4 4 4 3 4 4 3 3 3 4 4 3 2 1 2 2 4 4 4 6 5
5 4 7 4 4 5 7 4 6 4 3 9 8 3 2 1 5 3 17 13 5 8 11 14 13 12 13 14 12 12 11 12 13 13 14 13 12 9 9 10 7 7 6 6 5 4 4 4 5 4 4 4 4 4 5 5 7 9 9 8 6 5 7 7 4 4 5 4 5 4 5 3 3 3 3 4 4 4 4 4 5 5 4 3 3 4 3 3 3 3 3 3 3 3 4 3 5
7 6 3 2 1 4 5 4 4 2 1 4 5 1 1 2 4 4 4 13 9 6 7 11 14 15 14 12 11 11 9 10 12 14 13 10 8 8 9 9 9 7 6 6 5 4 3 3 4 4 3 3 4 5 5 4 5 8 8 8 8 6 6 6 6 6 5 5 6 4 4 5 5 5 3 4 4 4 4 4 5 5 4 4 4 4 4 3 3 3 3 3 3 3 3 5 5
2 2 2 4 1 3 1 3 2 2 4 7 6 2 3 1 3 0 0 5 10 9 8 5 5 6 6 8 11 11 9 8 8 9 7 8 6 7 9 10 10 9 7 8 7 6 5 5 4 4 3 3 3 5 5 6 5 7 8 9 10 9 8 9 8 6 5 6 7 5 6 5 4 4 4 3 4 4 5 4 5 4 4 4 4 4 4 4 3 4 3 3 3 4 4 4 3
4 2 3 2 7 1 1 3 2 3 3 6 7 4 5 2 2 4 4 4 20 20 19 18 14 10 10 8 7 8 9 9 10 12 10 7 9 10 10 11 11 10 9 9 8 7 6 6 6 6 4 5 4 5 5 5 5 6 7 8 10 10 9 8 9 7 6 7 6 6 5 6 4 5 4 4 4 4 5 4 4 4 4 4 4 4 4 4 4 4 4 4 3 3 3 4 4
3 1 2 2 3 4 2 1 1 2 4 2 3 6 2 0 2 5 10 8 15 19 22 21 17 12 9 7 7 7 7 11 14 12 11 8 9 11 12 12 10 11 10 10 9 8 8 7 8 8 7 6 6 5 5 4 4 5 7 8 7 8 7 7 7 6 5 7 6 6 5 6 5 5 4 5 4 4 5 5 4 5 5 4 4 5 4 5 5 5 5 4 4 4 4 4 5
2 2 3 3 2 1 1 1 1 1 5 7 4 1 1 2 3 8 6 2 12 10 8 8 9 9 7 7 6 5 6 9 10 10 9 9 10 11 11 11 10 9 9 10 10 9 8 8 8 8 8 6 5 5 5 5 4 4 5 6 7 7 7 7 6 7 6 6 6 6 6 6 6 5 4 4 3 4 4 4 4 5 4 4 4 5 5 4 4 5 4 5 4 3 4 5 5
6 2 8 8 6 3 2 1 1 3 6 3 4 2 2 4 0 6 4 6 9 12 16 16 15 12 12 11 11 10 10 9 11 12 13 13 13 13 11 10 10 10 10 10 10 10 9 9 9 10 9 7 6 6 5 6 5 6 5 6 7 6 7 7 7 7 7 7 5 6 5 5 6 3 5 4 3 4 4 4 5 6 5 4 5 5 5 4 4 4 4 4 3 3 5 5 4
2 2 5 4 6 6 3 4 4 1 1 2 3 1 0 4 0 4 7 12 8 6 8 11 14 12 12 10 11 12 9 8 7 9 9 9 10 10 10 10 10 10 10 8 10 9 9 10 10 10 11 9 6 5 5 6 5 6 6 7 7 7 6 6 6 6 6 6 6 7 5 4 4 4 2 3 3 4 4 4 5 5 5 5 5 5 4 4 4 5 4 4 5 3 7 6 4
2 3 4 7 6 9 4 2 1 6 4 1 0 3 3 1 7 7 9 13 7 5 7 10 12 14 14 13 12 12 10 9 9 10 10 10 9 9 10 10 10 9 7 6 6 8 9 9 9 8 7 6 6 5 5 5 6 7 6 7 7 7 8 7 7 6 7 5 6 6 6 5 4 4 3 3 4 3 3 4 4 5 5 5 5 4 4 4 4 4 4 4 4 4 6 5 4
2 0 6 2 4 5 5 4 0 2 2 3 2 6 4 1 3 2 6 11 6 5 6 7 9 10 12 11 11 11 11 9 7 7 7 9 10 10 9 8 8 8 7 5 5 5 6 6 9 10 8 8 5 4 4 4 7 7 7 7 8 8 8 7 7 7 6 7 5 5 5 5 5 5 4 3 4 3 3 4 5 4 4 4 5 4 4 4 4 3 3 3 3 4 5 4 4
9 6 3 2 1 1 3 5 1 3 1 2 3 2 1 2 1 4 1 6 8 7 8 10 11 10 11 9 7 6 5 6 6 6 8 8 7 6 5 5 5 6 7 5 3 3 3 3 4 7 8 6 5 4 3 3 6 6 6 7 7 6 6 6 6 7 7 8 7 6 6 6 4 4 5 4 3 3 3 4 4 4 4 4 4 4 4 4 4 4 2 3 2 5 5 4 2
2 3 2 2 4 3 3 4 5 7 3 2 2 3 2 2 1 6 1 9 7 7 9 9 10 13 10 7 4 1 1 3 4 5 5 6 6 5 6 7 6 6 6 5 3 3 4 3 4 4 5 5 5 5 4 4 4 6 5 5 4 5 6 6 6 7 7 8 7 7 5 5 5 4 4 4 4 4 4 4 3 4 4 3 4 3 4 4 3 3 3 3 2 5 4 4 4
6 8 6 5 2 2 4 1 2 5 6 5 2 1 1 2 4 1 10 6 5 5 5 6 6 4 4 7 8 8 8 7 4 2 4 5 5 6 7 7 6 6 5 5 4 3 2 1 3 5 6 6 6 6 5 4 4 5 6 6 5 5 5 6 6 8 8 7 7 7 6 5 4 4 4 4 4 3 3 3 4 4 4 4 4 4 2 3 3 3 1 2 2 4 4 3 4
3 3 2 3 2 2 4 4 2 3 6 5 6 3 1 3 3 2 8 4 8 10 7 4 5 6 7 6 5 7 8 9 6 5 4 5 5 7 8 8 7 7 6 6 4 4 3 3 2 1 3 4 6 5 4 4 3 4 6 6 5 4 5 5 7 8 9 8 7 6 6 5 6 5 6 6 4 3 3 4 4 4 4 4 4 4 3 3 4 3 2 1 2 3 4 2 3
Wind_Direction
187 61 80 88 82 36 68 24 89 301 76 250 262 219 251 236 246 300 281 297 298 352 4 48 49 27 115 124 116 86 17 135 242 138 204 162 109 116 119 124 131 125 129 133 134 132 134 130 128 128 128 127 129 129 128 126 124 122 122 123 123 123 122 120 118 117 117 116 116 116 117 117 117 115 116 118 119 121 125 120 112 110 108 108 108 108 108 104 100 99 97 99 101 98 95 88 85
134 103 73 127 248 85 300 139 103 5 36 313 247 148 246 237 226 233 256 250 210 115 353 88 84 87 97 110 129 99 37 30 59 107 82 101 100 101 126 134 137 132 133 134 131 132 134 132 130 130 129 130 131 132 130 128 126 123 125 125 125 124 123 120 120 120 119 119 119 120 120 120 118 116 116 115 114 113 108 111 111 110 110 109 108 108 107 104 102 99 96 99 98 97 94 88 82
55 62 25 64 19 114 335 52 200 150 161 244 266 208 308 318 259 263 252 246 233 141 203 77 83 55 83 101 40 53 141 72 89 84 98 123 109 129 121 122 124 124 129 130 131 133 134 136 133 132 131 132 133 134 131 128 126 126 127 128 125 123 121 120 118 118 119 120 121 121 120 119 118 114 103 108 96 99 112 110 114 114 113 112 112 110 106 104 104 101 101 97 93 90 87 80 78
81 66 114 54 348 7 75 35 102 138 206 229 307 247 234 233 256 247 255 251 132 149 212 27 40 321 94 70 93 83 105 100 87 126 126 151 134 130 122 120 120 118 122 128 132 133 137 139 136 135 135 134 136 136 132 130 129 130 132 132 127 123 120 119 117 117 116 120 120 118 116 115 112 103 96 91 91 99 95 90 95 105 102 108 112 108 106 106 105 101 99 95 89 83 78 74 75
70 358 98 79 107 355 100 195 171 127 230 167 229 265 233 235 269 277 275 252 172 153 141 135 83 343 47 86 37 123 140 118 111 86 109 100 127 131 130 129 125 125 127 131 131 134 141 140 139 138 138 138 138 137 134 132 132 134 134 133 128 123 121 119 119 119 120 120 117 115 114 111 104 100 97 93 90 89 88 88 86 79 74 81 98 101 105 106 103 100 94 88 83 74 70 69 70
62 44 332 91 127 211 37 324 272 225 233 140 264 262 300 280 291 299 292 294 54 124 141 97 132 177 42 19 14 110 139 136 146 79 124 137 136 136 135 129 125 125 128 131 134 137 139 142 141 141 141 140 140 138 136 135 135 135 135 132 125 122 121 120 122 122 120 117 115 114 112 105 101 100 98 95 90 88 88 85 82 88 89 98 105 107 108 109 104 100 100 90 79 72 64 65 61
113 60 10 23 331 79 151 199 248 243 256 212 256 280 294 291 279 288 290 281 67 71 343 115 117 109 86 145 41 19 88 121 122 152 132 133 131 133 132 126 121 122 131 135 134 135 142 145 145 144 142 140 139 138 138 137 136 136 134 130 125 123 121 123 123 121 117 114 113 112 109 106 104 102 100 98 96 95 94 93 89 85 84 96 107 110 111 108 106 101 97 92 84 76 67 58 51
86 105 230 104 258 89 254 226 251 196 274 189 238 254 262 268 281 283 278 290 202 94 114 131 149 95 52 13 116 330 71 84 117 111 119 129 135 133 130 128 121 127 133 136 133 137 146 147 147 145 141 140 139 139 140 138 136 135 133 128 124 123 122 121 121 117 113 114 114 113 113 111 108 107 104 104 105 103 102 101 100 96 96 96 103 107 108 109 107 104 98 96 88 71 59 51 41
6 90 299 75 304 350 307 245 253 232 262 257 261 258 274 276 280 280 269 217 71 79 138 149 137 88 140 80 73 101 88 108 105 118 125 132 135 133 127 129 128 133 134 135 136 142 143 150 145 140 138 138 138 139 138 136 133 132 131 125 122 121 120 121 119 114 113 116 117 118 116 116 114 109 109 108 109 109 107 105 102 103 101 102 104 111 114 112 109 106 99 90 78 59 44 35 27
27 108 259 169 138 246 275 272 248 242 247 252 251 262 259 267 263 248 217 72 137 130 45 12 81 108 123 96 107 93 114 115 114 115 132 134 130 125 125 128 128 131 136 134 135 134 140 143 137 134 135 137 137 136 133 131 131 129 127 120 119 119 118 117 116 116 118 119 116 113 115 118 118 116 116 114 110 108 106 106 105 106 103 102 105 111 115 113 113 114 111 91 71 45 26 17 14
13 334 177 23 316 243 240 265 258 299 279 283 274 254 245 245 259 240 219 135 144 117 107 96 75 120 107 103 51 69 110 113 123 134 142 134 127 125 123 124 126 129 129 127 127 131 137 138 135 131 136 136 133 130 128 127 125 122 119 117 116 116 117 114 115 121 121 114 113 116 118 118 119 120 118 115 113 110 108 106 106 105 105 105 106 115 121 118 112 111 109 95 66 29 8 4 3
15 235 93 147 209 187 245 228 275 278 284 282 275 271 244 221 229 208 210 120 151 140 152 162 153 120 88 120 124 128 106 94 113 132 138 131 127 127 122 121 119 119 123 127 129 129 126 132 135 137 133 130 127 126 126 123 121 119 119 116 114 113 114 116 113 117 115 114 117 118 118 117 117 117 118 118 118 113 108 105 101 99 98 98 105 115 113 111 110 108 109 108 78 23 358 355 355
164 230 357 102 231 179 257 280 270 292 298 280 265 283 295 182 191 190 75 62 101 127 354 189 139 136 121 121 103 104 103 117 122 125 128 127 126 121 116 118 118 121 126 132 131 126 125 124 133 130 133 126 124 124 123 121 119 119 119 117 114 116 121 117 116 118 119 118 123 125 117 114 112 113 116 118 116 113 109 104 103 104 106 106 108 114 118 115 117 118 119 118 106 55 351 338 341
170 182 132 256 282 250 271 260 276 298 284 274 282 274 330 101 35 88 90 58 28 80 144 134 120 115 100 115 134 142 140 160 123 118 120 120 123 119 116 118 121 124 132 135 130 127 124 126 125 127 126 125 128 125 121 120 120 122 122 119 120 127 129 118 124 126 120 119 121 124 117 117 116 114 113 112 112 108 106 106 108 109 111 114 116 114 119 123 123 124 119 118 111 85 351 328 325
207 177 131 191 289 341 239 252 241 287 282 284 284 4 333 289 112 119 106 94 44 62 92 36 143 103 196 155 160 164 161 147 127 118 117 121 118 115 117 118 122 128 132 130 129 128 126 126 125 121 121 124 119 116 119 128 126 124 123 124 132 131 131 131 135 122 120 121 124 123 122 119 118 114 113 114 110 110 110 108 114 116 118 119 121 121 121 123 123 121 112 105 98 109 8 323 324
193 150 194 211 263 229 270 226 57 250 264 312 281 313 44 349 40 89 289 124 144 101 207 178 275 183 168 176 160 153 152 140 134 122 120 119 114 111 115 121 125 130 131 133 129 126 126 125 122 119 119 116 113 114 119 128 131 131 130 136 142 134 131 132 120 119 123 122 122 123 125 122 118 122 124 120 116 113 111 117 120 118 119 118 122 130 128 127 128 122 108 97 92 91 62 327 307
239 167 258 236 273 235 251 186 208 252 280 300 296 324 87 51 37 43 340 95 115 123 109 322 302 84 144 130 135 132 138 135 132 127 124 125 124 121 120 121 127 129 133 135 133 130 126 122 118 117 116 113 113 114 117 126 138 137 136 144 143 126 125 123 123 125 123 121 118 120 111 114 116 121 124 125 121 118 124 128 125 121 125 129 128 127 129 121 127 115 116 113 114 131 334 332 321
186 212 200 240 229 251 221 200 263 308 309 295 327 324 36 97 85 153 65 44 81 67 54 46 53 68 103 107 119 129 136 136 139 135 137 135 134 132 131 137 139 144 144 137 130 126 123 120 124 119 117 115 114 114 118 130 134 135 138 142 123 125 129 128 120 111 112 105 122 119 110 115 120 126 135 128 123 128 131 131 127 125 130 130 131 124 121 122 126 136 131 144 171 150 85 273 285
181 219 171 230 209 241 93 237 255 272 277 307 302 296 141 114 141 192 88 96 96 71 44 60 84 86 100 110 125 130 139 139 145 143 146 146 146 143 139 142 145 141 142 132 128 125 117 116 122 121 119 117 113 111 118 123 129 136 138 136 126 123 124 120 109 114 116 120 106 104 105 107 118 135 130 135 133 134 134 135 131 134 132 131 126 127 127 132 132 143 153 160 161 178 77 336 336
218 190 229 237 235 258 263 243 260 265 310 301 298 302 321 226 86 185 123 155 114 121 119 77 113 125 126 131 133 137 139 143 147 148 149 148 146 142 142 146 148 148 137 132 125 106 102 114 121 120 122 120 114 115 116 121 124 130 151 131 119 114 114 112 116 124 125 118 114 106 105 102 95 126 155 149 141 126 136 133 134 133 131 128 129 116 131 138 137 127 135 96 51 33 40 31 29
260 168 217 237 240 276 265 254 269 284 263 276 298 300 341 313 136 131 141 94 321 180 164 152 156 145 143 143 142 144 146 150 151 149 149 148 143 139 144 144 147 137 125 113 100 95 101 111 118 115 110 104 113 114 116 113 116 136 173 130 117 99 98 99 120 126 117 116 111 106 104 100 93 92 97 104 115 126 118 110 102 91 95 101 109 103 61 60 74 33 33 53 31 49 44 23 21
306 216 215 240 260 256 265 267 265 267 275 283 286 331 307 290 76 128 145 146 199 195 207 154 149 147 148 151 148 146 150 153 156 155 160 157 150 143 133 124 119 107 104 103 92 100 102 106 98 82 79 87 85 88 112 123 131 166 187 128 110 75 89 103 116 104 103 111 113 109 104 105 94 91 99 111 113 121 118 119 123 133 133 148 107 96 11 83 76 53 72 72 58 57 49 36 28
248 274 269 260 249 251 267 270 264 252 268 278 284 273 230 346 347 195 190 165 203 196 163 159 151 152 150 144 145 150 155 158 163 163 161 157 145 136 126 116 104 92 85 85 93 104 117 118 109 115 124 117 108 102 98 118 146 204 197 117 119 108 129 130 115 109 110 110 112 129 130 123 112 99 103 111 114 123 133 137 146 141 150 162 166 114 36 35 88 90 76 68 56 55 56 43 33
210 254 254 260 257 250 256 258 258 264 264 266 254 264 198 121 344 258 92 296 155 136 142 139 132 129 135 139 151 153 157 162 168 165 161 154 138 130 105 74 67 71 72 74 102 114 124 118 116 132 143 135 132 136 130 129 173 200 218 115 109 143 152 151 145 170 137 107 127 156 124 133 127 118 120 123 131 117 144 150 143 126 123 147 159 139 126 73 79 85 92 84 76 66 69 55 20
229 250 252 262 265 258 251 244 248 252 252 253 277 243 261 194 186 100 136 138 133 139 142 135 133 134 139 145 155 158 159 162 162 155 138 122 87 85 90 96 97 98 96 80 94 97 101 110 152 165 154 141 140 142 143 154 172 199 215 134 136 158 158 149 159 160 124 128 148 152 144 129 112 130 133 140 130 123 134 139 127 119 113 120 111 85 109 108 74 76 81 95 98 86 81 71 52
226 235 246 253 256 258 251 251 238 237 237 226 274 263 273 268 180 126 161 160 143 137 136 140 141 145 150 155 160 162 164 165 157 148 124 90 99 99 98 104 111 117 134 121 108 89 95 149 180 175 161 152 150 149 154 157 171 196 201 176 163 157 148 154 161 147 133 143 154 147 117 116 126 142 134 136 129 122 118 114 115 123 118 122 113 107 120 105 108 78 73 77 81 90 80 94 151
234 267 250 249 260 272 267 258 258 254 221 202 230 256 279 300 297 237 268 152 140 136 138 146 148 156 159 156 158 161 161 160 159 129 98 92 92 104 113 114 123 124 117 116 125 152 165 176 173 164 171 163 149 153 156 157 173 188 191 183 164 150 152 158 153 135 141 154 154 139 123 122 122 122 134 150 127 123 124 121 124 123 122 131 124 125 117 114 113 107 105 100 98 103 111 135 156
275 263 281 276 274 268 275 276 264 280 268 195 187 220 230 277 176 208 180 193 149 143 148 154 158 164 162 157 155 161 161 155 103 79 106 109 118 129 138 133 131 136 135 159 157 154 166 168 162 166 170 166 160 154 150 163 176 185 186 170 166 148 150 146 140 137 152 154 147 136 119 104 109 108 131 136 126 131 135 132 141 135 145 147 133 131 117 109 104 99 99 111 107 109 125 130 137
273 291 297 287 289 291 262 260 276 253 258 199 185 235 296 275 203 230 174 162 167 149 159 162 167 170 161 155 154 156 161 131 104 117 120 124 140 132 125 128 129 143 174 151 138 149 159 168 160 168 166 164 164 158 156 170 167 173 186 177 148 138 138 133 140 147 141 145 146 143 123 113 113 127 134 131 132 142 141 141 146 140 145 145 133 132 122 112 105 107 113 117 102 96 105 107 91
333 316 266 300 303 290 267 216 243 234 246 193 129 248 261 258 240 250 167 162 163 149 156 167 170 168 161 157 156 157 144 116 116 125 126 132 131 130 128 144 152 164 147 131 141 150 156 168 162 167 168 163 165 153 154 161 162 172 183 156 136 134 142 149 149 142 149 143 148 152 130 128 130 140 142 144 143 145 155 162 152 142 143 143 142 142 137 138 113 110 136 109 131 127 125 131 112
275 277 332 238 300 261 281 231 276 303 225 171 158 224 265 267 267 257 171 169 161 166 167 175 170 168 163 158 156 148 118 102 126 127 134 134 134 138 138 149 159 145 126 141 147 150 163 161 163 168 168 161 160 157 159 161 157 167 163 150 142 144 151 147 137 144 153 148 147 146 135 136 144 160 162 152 150 142 146 154 155 154 145 146 148 159 139 127 124 137 125 116 110 106 108 109 109
281 2 291 313 204 286 297 281 226 240 289 158 165 233 224 237 243 249 174 180 168 167 174 173 173 166 164 156 144 129 111 113 118 127 124 102 92 123 149 160 150 139 145 147 144 150 157 157 169 168 166 161 163 163 160 154 158 156 157 154 145 153 146 143 150 162 157 144 152 149 140 145 152 162 168 159 151 160 162 159 148 137 140 140 147 151 139 142 144 132 126 120 110 102 104 91 88
315 181 262 277 306 278 338 277 214 213 228 247 181 231 299 285 256 251 202 172 174 174 174 169 177 164 156 153 141 129 121 115 117 119 105 112 130 170 192 152 149 149 143 142 145 150 151 161 168 167 166 157 152 156 145 144 148 158 156 150 154 148 149 154 163 149 144 145 155 151 142 156 166 176 177 168 158 157 145 131 132 127 134 147 151 166 160 143 141 134 128 167 135 133 124 122 105
278 347 224 216 249 296 272 304 311 252 195 267 263 213 223 235 247 231 216 163 179 178 172 175 177 167 156 145 130 127 117 118 116 114 128 147 169 183 174 141 139 135 138 143 150 155 157 160 162 159 145 143 152 154 152 149 151 148 142 143 143 148 158 167 158 148 149 153 157 148 151 172 189 187 176 159 149 143 138 130 140 144 140 148 142 156 160 131 128 126 131 112 123 116 123 130 125
216 279 304 302 301 228 248 293 278 305 253 224 260 250 253 251 245 233 223 160 175 181 178 181 169 147 144 122 111 110 111 113 125 140 154 163 163 159 127 122 124 133 142 149 151 155 152 147 142 142 137 137 138 134 127 125 134 122 100 122 134 130 149 168 157 146 151 149 171 169 173 186 176 160 152 144 134 128 128 133 140 151 143 128 119 123 111 120 128 117 131 121 69 116 130 133 131
201 225 221 222 277 283 268 261 259 225 274 255 245 233 244 244 248 244 253 160 171 186 182 163 143 147 134 114 117 116 116 119 147 165 163 160 144 131 135 134 136 144 149 150 150 154 150 136 126 127 139 143 138 138 131 139 141 146 137 123 129 158 148 155 171 160 157 175 178 173 175 169 155 142 136 141 133 137 130 127 120 118 120 122 114 113 133 138 144 122 145 129 102 84 87 113 117
281 296 285 266 261 272 269 266 275 249 254 234 237 239 240 241 234 237 227 188 158 165 149 151 154 146 125 129 126 116 123 144 170 146 132 128 124 133 135 136 143 143 146 148 150 154 152 153 149 153 156 153 151 150 155 155 150 129 116 158 169 165 152 153 177 164 183 183 166 157 157 154 149 139 147 141 128 115 106 103 101 104 118 127 137 163 170 168 149 145 155 122 125 109 93 106 121
241 255 266 274 266 272 268 278 284 242 200 265 241 237 235 237 233 233 231 132 186 153 148 152 159 126 135 125 119 126 135 133 133 130 138 136 141 147 146 147 145 146 158 156 156 153 149 152 160 152 153 163 166 167 160 165 159 158 152 170 156 149 144 159 176 190 198 176 155 152 152 146 143 147 142 124 111 105 98 92 106 131 130 138 142 140 154 157 127 130 127 77 50 123 111 155 175
247 225 256 282 272 268 275 263 246 213 218 273 271 230 228 232 226 235 223 209 204 169 160 160 148 132 128 120 126 135 134 136 137 140 147 148 148 153 159 158 158 159 157 158 151 142 148 157 161 160 163 167 175 167 156 164 148 152 156 162 150 148 157 167 169 175 169 159 162 148 129 121 131 133 127 119 115 117 128 142 163 159 160 152 130 130 130 141 151 153 145 142 110 59 103 138 218
235 261 269 253 255 314 305 284 254 297 198 270 269 214 229 232 235 241 249 222 342 112 161 155 143 145 134 141 147 145 143 146 153 163 157 155 154 155 154 158 153 150 149 152 158 156 154 159 162 164 171 173 169 176 161 160 155 150 133 136 134 136 150 134 127 132 132 123 134 94 119 132 124 127 123 120 124 138 153 163 163 162 165 150 145 141 135 139 137 130 124 146 136 111 112 129 316
239 226 239 247 253 228 220 280 332 303 306 255 211 146 230 254 229 261 310 50 88 96 101 99 86 109 128 133 138 150 155 158 159 158 150 156 158 163 167 167 160 160 161 166 167 164 161 161 164 169 172 175 175 175 164 146 122 108 102 91 96 85 76 107 109 99 127 138 114 130 158 118 124 120 117 130 143 156 155 153 152 152 141 141 141 142 149 168 167 154 149 144 161 145 152 130 314
267 231 214 216 185 234 278 293 360 359 322 328 111 51 227 303 272 240 318 60 72 94 108 112 126 134 138 145 152 162 165 164 158 169 165 165 165 170 169 154 162 161 166 171 166 161 158 159 163 169 169 169 173 174 165 150 146 138 138 136 139 136 132 134 142 152 149 145 143 114 100 126 123 115 108 116 136 147 166 160 126 131 142 153 158 143 134 133 149 153 179 161 174 146 132 121 110
237 265 197 207 178 225 295 307 17 315 290 287 97 147 259 330 66 211 63 96 94 62 108 127 135 145 150 152 157 162 161 157 148 123 147 163 170 168 159 156 164 166 169 156 148 152 155 157 165 168 166 167 172 172 163 145 141 149 150 148 145 146 145 168 150 148 140 113 98 102 115 113 118 119 128 123 117 122 121 109 127 123 135 133 121 122 147 169 169 174 160 152 159 129 123 114 142
239 238 188 205 155 271 275 280 266 248 250 293 48 124 133 338 290 53 93 110 113 111 119 132 145 146 148 151 158 161 159 158 153 162 170 174 173 174 164 155 154 144 130 133 136 146 162 165 165 164 153 159 179 167 147 157 146 146 136 136 145 145 145 150 150 137 106 112 108 117 101 85 95 115 118 99 97 98 103 99 109 109 106 110 121 152 166 156 121 109 142 141 128 141 147 142 147
214 239 202 228 219 234 252 264 268 249 320 287 319 1 58 262 271 76 106 105 95 127 146 147 146 147 149 154 157 155 155 158 159 162 172 176 174 159 145 141 128 116 127 136 146 150 147 158 163 149 150 165 182 163 147 157 150 147 142 143 138 140 134 138 131 119 116 107 94 66 79 77 75 56 63 72 73 87 84 110 119 111 104 107 105 97 91 103 125 133 121 118 133 133 158 153 136
256 221 195 207 208 227 226 236 252 302 217 278 284 25 145 294 282 345 39 123 151 145 168 160 159 158 158 153 155 154 147 151 166 168 168 169 166 145 130 118 114 118 120 118 115 124 140 148 161 151 154 181 174 151 142 147 152 141 141 144 137 136 127 124 127 127 123 111 100 88 85 79 73 63 53 73 72 62 77 91 110 112 117 110 97 102 96 85 90 101 126 132 128 127 143 147 157
182 139 249 272 268 240 310 202 171 83 221 254 232 220 140 264 288 321 113 184 162 131 143 178 177 154 151 160 157 151 146 151 152 157 161 158 137 123 122 124 122 126 137 144 146 153 155 162 158 152 167 187 182 157 152 161 168 150 146 147 140 139 141 137 131 126 120 109 112 110 101 98 93 99 92 63 70 74 71 79 100 109 106 105 106 100 98 104 97 95 89 87 99 127 133 125 122
151 153 192 309 315 21 112 330 80 131 263 257 242 174 131 160 290 299 251 176 155 154 163 174 179 172 166 163 152 143 151 151 150 152 166 156 126 128 130 135 144 150 153 158 156 157 162 163 154 154 169 186 191 168 156 158 163 152 144 145 142 144 145 141 140 143 138 128 126 122 119 103 99 98 91 84 66 74 80 77 96 104 99 97 97 104 99 97 101 99 91 95 91 85 95 105 125
149 134 49 166 274 28 338 9 206 191 178 244 229 136 39 355 217 290 319 157 163 163 164 169 163 156 158 156 150 158 156 156 164 157 147 150 144 143 147 151 151 159 164 161 160 162 165 162 162 163 179 185 189 170 153 150 151 154 148 143 138 139 136 134 133 132 137 129 130 126 118 115 116 95 89 95 90 95 99 89 97 109 102 96 112 99 99 99 96 95 99 99 107 114 132 129 121
115 174 159 157 216 270 226 271 220 314 280 256 267 205 130 279 313 6 345 102 141 118 96 97 113 132 139 151 158 154 161 166 155 148 151 152 151 151 151 158 162 165 163 163 165 168 167 165 165 170 179 179 184 170 152 150 155 153 139 135 137 134 133 133 137 134 134 132 136 134 132 137 132 140 138 131 147 108 92 104 101 99 105 118 108 102 101 102 103 103 104 97 94 116 111 114 127
212 150 160 182 149 161 216 221 189 211 207 283 318 120 220 105 264 360 347 93 116 133 143 147 145 155 165 171 163 168 170 170 163 153 162 165 160 157 158 163 167 173 172 168 169 172 166 167 170 174 172 181 179 174 154 159 150 153 145 142 140 138 135 134 139 135 137 137 141 132 134 133 127 155 143 159 141 109 116 98 99 106 116 112 101 92 85 82 84 83 80 94 88 93 95 102 105
236 183 71 95 221 141 175 204 150 224 340 357 356 101 195 105 69 359 79 96 96 119 128 128 133 150 160 165 173 172 167 157 153 148 153 161 154 154 161 166 174 178 174 171 170 170 173 174 173 176 175 173 177 162 159 158 147 146 141 141 143 139 137 134 128 123 137 141 145 137 142 135 135 135 136 127 131 121 120 99 94 108 112 105 100 99 94 92 88 87 64 65 68 83 96 91 101
270 109 171 215 185 120 93 48 43 77 43 272 238 27 19 46 44 18 84 96 105 128 134 133 143 156 161 169 174 172 167 162 157 154 158 154 146 159 172 172 172 169 167 172 171 175 178 173 170 170 171 167 172 171 159 154 141 139 146 142 139 140 142 145 145 143 145 143 140 140 138 140 131 133 138 130 122 106 110 109 105 109 105 108 102 100 100 101 96 95 102 90 92 91 95 114 117
85 131 247 131 79 107 126 186 338 87 163 257 30 144 184 102 127 327 83 101 106 124 134 130 130 155 166 178 180 174 170 163 144 142 144 155 161 166 169 170 162 154 147 154 169 172 178 177 168 164 167 171 169 140 131 137 135 136 144 148 148 151 150 148 145 140 137 130 128 122 119 130 151 153 137 134 119 113 104 105 110 111 115 112 119 113 114 119 110 108 123 110 130 109 97 84 85
164 196 203 106 263 234 321 94 110 125 188 258 341 321 354 121 123 344 342 106 129 125 124 133 149 170 178 179 185 180 136 106 123 132 140 153 159 151 135 117 124 131 134 139 133 141 151 167 170 168 166 160 150 129 133 134 136 141 148 152 151 147 142 141 134 127 131 130 135 138 143 147 138 135 126 126 121 117 111 109 115 117 115 118 114 124 126 127 124 125 124 118 114 97 96 92 74
337 46 27 128 101 153 123 201 168 115 194 89 288 51 190 359 337 286 210 1 340 101 116 138 157 172 177 180 176 231 100 81 101 124 128 148 148 112 97 98 108 122 127 123 111 104 140 157 158 159 143 135 124 114 117 121 133 130 127 126 134 137 136 133 131 125 125 131 136 131 137 137 151 137 135 136 135 137 133 127 120 120 122 123 129 139 138 140 127 137 140 120 100 100 104 108 86
20 53 4 356 5 216 105 97 120 155 159 155 177 293 297 315 308 336 100 102 60 27 43 114 133 133 22 24 24 9 359 7 25 66 105 117 120 103 90 87 85 69 72 82 79 87 97 108 161 158 148 141 132 122 117 118 116 120 120 124 129 127 125 121 115 117 119 123 127 136 146 142 126 135 133 135 141 142 143 136 130 137 146 152 153 160 155 143 140 147 145 123 98 100 107 103 99
97 134 130 199 147 120 165 251 347 88 107 176 143 214 260 278 334 285 110 134 121 127 128 83 63 54 52 15 19 28 32 18 7 32 68 96 94 89 81 83 75 68 67 76 79 82 71 61 35 58 92 83 96 95 102 96 83 105 109 108 106 99 101 100 106 110 118 124 134 142 144 141 142 154 146 149 151 152 148 143 141 147 156 161 165 169 156 142 145 143 140 99 111 104 99 99 98